Quad City International Airport Moline US
ICAO: KMLI
IATA: MLI
Category: Large
Scheduled Services: Yes

Elevation: 590 ft
TransAlt. 18000 ft.

Airport Communications:
APP/DEP:118.2
ATIS:121.2
CLNC DEL:123.95
CTAF:119.4
GND:121.9
KANKAKEE RDO:122.6
TWR:119.4
UNICOM:122.95

KMLI Zoom In..

If Map Doesn't Load, Click Here

Runways:

(A) RW 05 length 5015 ft width 150 ft
---- / hdg 48

(B) RW 09 length 10002 ft width 150 ft
ILS 110.50 / hdg 90

(C) RW 13 length 7301 ft width 150 ft
---- / hdg 126

(D) RW 23 length 5015 ft width 150 ft
---- / hdg 228

(E) RW 27 length 10002 ft width 150 ft
ILS 110.50 / hdg 270

(F) RW 31 length 7301 ft width 150 ft
---- / hdg 306

Location; KMLI
Day. 23 / Time. 21.52 Zulu
* Altimeter: 30.04
* Temperature: 25° c. 77°f.
* Wind from: 150° Speed 07 kn.
Dewpoint: 09° c.
Visibility: 9 Statute Miles.
Clouds: Clear (automated report).

KMLI 232152Z 15007KT 9SM CLR 25/09 A3004 RMK AO2 SLP171 T02500094


Wind From 150°
Speed 07 kn.

 
 
jpsmedia.com for Web Design worldairports.se 2018   terms of use